CW1172 Weather Reports


time (UTC)temp
C
wind
direction
speed
KPH
gust
KPH
rain 1hr
cm
rain 24hr
cm
rain mn
cm
humidity
%
barometer
mb
20260507220051 2 128 0.0 0.0 0.00 0.00 0.00 69 1019.6
20260507214601 3 128 0.0 0.0 0.00 0.00 0.00 69 1019.6
20260507213149 3 129 0.0 0.0 0.00 0.00 0.00 67 1019.5
20260507211545 3 128 0.0 0.0 0.00 0.00 0.00 66 1019.4
20260507210051 3 360 0.0 0.0 0.00 0.00 0.00 64 1019.3
20260507204555 4 240 0.0 0.0 0.00 0.00 0.00 63 1019.1
20260507203142 5 241 0.0 0.0 0.00 0.00 0.00 61 1019.0
20260507201541 5 242 0.0 0.0 0.00 0.00 0.00 59 1019.0
20260507200039 6 242 0.0 0.0 0.00 0.00 0.00 56 1019.0
20260507194537 7 360 0.0 0.0 0.00 0.00 0.00 53 1018.8
20260507193135 8 240 0.0 0.0 0.00 0.00 0.00 49 1018.5
20260507191547 9 241 0.0 0.0 0.00 0.00 0.00 46 1018.4
20260507190046 10 240 0.0 0.0 0.00 0.00 0.00 41 1018.1
20260507184544 10 241 0.0 0.0 0.00 0.00 0.00 39 1017.8
20260507183143 11 267 0.0 0.0 0.00 0.00 0.00 39 1017.6
20260507181530 11 290 0.0 0.0 0.00 0.00 0.00 38 1017.7
20260507180033 12 300 0.0 0.0 0.00 0.00 0.00 34 1017.5
20260507174534 12 302 0.0 0.0 0.00 0.00 0.00 36 1017.4
20260507173129 13 288 0.0 0.0 0.00 0.00 0.00 33 1017.4
20260507171526 14 360 0.0 0.0 0.00 0.00 0.00 33 1017.3
20260507170025 15 231 0.0 0.0 0.00 0.00 0.00 33 1017.2
20260507164525 15 286 0.0 0.0 0.00 0.00 0.00 30 1017.1
20260507163125 15 232 0.0 0.0 0.00 0.00 0.00 29 1016.9
20260507161524 16 304 0.0 0.0 0.00 0.00 0.00 28 1017.0
20260507160023 16 279 0.0 0.0 0.00 0.00 0.00 30 1016.9
20260507154523 16 289 0.0 0.0 0.00 0.00 0.00 28 1017.0
20260507153121 16 300 0.0 0.0 0.00 0.00 0.00 31 1016.8
20260507151526 15 360 0.0 0.0 0.00 0.00 0.00 30 1016.6
20260507150027 15 223 0.0 0.0 0.00 0.00 0.00 30 1016.6
20260507144524 15 302 0.0 0.0 0.00 0.00 0.00 29 1016.6
20260507143127 15 360 0.0 0.0 0.00 0.00 0.00 29 1016.5
20260507141519 14 296 0.0 0.0 0.00 0.00 0.00 29 1016.5
20260507140020 15 360 0.0 0.0 0.00 0.00 0.00 30 1016.6
20260507134520 15 305 0.0 0.0 0.00 0.00 0.00 32 1016.4
20260507133116 15 329 0.0 0.0 0.00 0.00 0.00 29 1016.3
20260507131519 15 271 0.0 0.0 0.00 0.00 0.00 28 1016.4
20260507130015 16 360 0.0 0.0 0.00 0.00 0.00 29 1016.3
20260507124521 16 265 0.0 0.0 0.00 0.00 0.00 29 1016.2
20260507123113 16 290 0.0 0.0 0.00 0.00 0.00 30 1016.1
20260507121514 15 309 0.0 0.0 0.00 0.00 0.00 29 1016.0
20260507120013 16 360 0.0 0.0 0.00 0.00 0.00 31 1016.1
20260507114514 16 305 0.0 0.0 0.00 0.00 0.00 32 1016.1
20260507113111 16 219 0.0 0.0 0.00 0.00 0.00 31 1015.9
20260507111511 15 360 0.0 0.0 0.00 0.00 0.00 33 1016.0
20260507110008 15 350 0.0 0.0 0.00 0.00 0.00 33 1016.0
20260507104506 15 360 0.0 0.0 0.00 0.00 0.00 34 1016.0
20260507103105 15 267 0.0 0.0 0.00 0.00 0.00 34 1015.9
20260507101504 15 90 0.0 0.0 0.00 0.00 0.00 35 1015.7
20260507100005 15 335 0.0 0.0 0.00 0.00 0.00 31 1015.7
20260507094501 15 360 0.0 0.0 0.00 0.00 0.00 32 1015.5
20260507093103 14 283 0.0 0.0 0.00 0.00 0.00 34 1015.3
20260507091606 14 278 0.0 0.0 0.00 0.00 0.00 38 1015.2
20260507090056 13 311 0.0 0.0 0.00 0.00 0.00 44 1015.2
20260507084557 13 264 0.0 0.0 0.00 0.00 0.00 49 1015.3
20260507083056 13 222 0.0 0.0 0.00 0.00 0.00 53 1015.1
20260507081550 12 126 0.0 0.0 0.00 0.00 0.00 54 1015.2
20260507080113 12 360 0.0 0.0 0.00 0.00 0.00 58 1015.1
20260507074547 12 321 0.0 0.0 0.00 0.00 0.00 61 1015.1
20260507073050 11 272 0.0 0.0 0.00 0.00 0.00 66 1015.0
20260507071559 11 360 0.0 0.0 0.00 0.00 0.00 65 1014.9
20260507070043 10 205 0.0 0.0 0.00 0.00 0.00 66 1014.8
20260507064545 10 195 0.0 0.0 0.00 0.00 0.00 68 1014.6
20260507063039 8 126 0.0 0.0 0.00 0.00 0.00 71 1014.5
20260507061537 8 126 0.0 0.0 0.00 0.00 0.00 73 1014.5
20260507060033 6 126 0.0 0.0 0.00 0.00 0.00 81 1014.5
20260507054528 5 127 0.0 0.0 0.00 0.00 0.00 83 1014.3
20260507053027 3 126 0.0 0.0 0.00 0.00 0.00 89 1014.1
20260507051518 2 126 0.0 0.0 0.00 0.00 0.00 89 1014.0
20260507050016 1 126 0.0 0.0 0.00 0.00 0.00 89 1014.0
20260507044514 0 125 0.0 0.0 0.00 0.00 0.00 88 1013.9
20260507043014 0 127 0.0 0.0 0.00 0.00 0.00 88 1013.7
20260507041518 0 127 0.0 0.0 0.00 0.00 0.00 88 1013.7
20260507040017 0 126 0.0 0.0 0.00 0.00 0.00 87 1013.5
20260507034519 0 126 0.0 0.0 0.00 0.00 0.00 87 1013.4
20260507033016 -1 128 0.0 0.0 0.00 0.00 0.00 87 1013.4
20260507031512 -1 126 0.0 0.0 0.00 0.00 0.00 87 1013.3
20260507030012 -1 125 0.0 0.0 0.00 0.00 0.00 87 1013.2
20260507024511 -1 126 0.0 0.0 0.00 0.00 0.00 86 1013.3
20260507023010 -1 128 0.0 0.0 0.00 0.00 0.00 86 1013.1
20260507021514 -1 128 0.0 0.0 0.00 0.00 0.00 86 1013.1
20260507020009 0 126 0.0 0.0 0.00 0.00 0.00 85 1013.0
20260507014508 0 126 0.0 0.0 0.00 0.00 0.00 85 1013.0
20260507013006 0 126 0.0 0.0 0.00 0.00 0.00 84 1013.0
20260507011504 0 126 0.0 0.0 0.00 0.00 0.00 84 1012.8
20260507010003 0 140 0.0 0.0 0.00 0.00 0.00 84 1012.9
20260507004501 0 141 0.0 0.0 0.00 0.00 0.00 83 1012.8
20260507003100 0 140 0.0 0.0 0.00 0.00 0.00 83 1012.6
20260507001616 0 141 0.0 0.0 0.00 0.00 0.00 82 1012.8
20260506234559 0 260 0.0 0.0 0.00 0.00 0.00 81 1012.5
20260506233054 0 260 0.0 0.0 0.00 0.00 0.00 80 1012.6
20260506231553 1 360 0.0 0.0 0.00 0.00 0.00 79 1012.5
20260506230052 1 360 0.0 0.0 0.00 0.00 0.00 78 1012.4
20260506224549 1 260 0.0 0.0 0.00 0.00 0.00 77 1012.4
20260506223045 2 360 0.0 0.0 0.00 0.00 0.00 76 1012.4
20260506221545 2 259 0.0 0.0 0.00 0.00 0.00 74 1012.2